Regional Weather Roundup
Issued by NWS Wakefield, VA

Home | Current Version | Previous Version | Graphics & Text | Print | Product List | Glossary On
Versions: 1 2 3 4 5 6 7 8 9 10 11 12 13 14 15 16 17 18 19 20 21 22 23 24 25 26 27 28 29 30 31 32 33 34 35 36 37 38 39 40 41 42 43 44 45 46 47 48 49 50
000
ASUS41 KAKQ 231314
RWRAKQ

REGIONAL WEATHER ROUNDUP
NATIONAL WEATHER SERVICE WAKEFIELD VA
900 AM EDT WED MAY 23 2018

Note: "fair" indicates few or no clouds below 12,000 feet with no
significant weather and/or obstructions to visibility. * = Denotes
station may not report precipitation (e.g., rain,snow,etc.),
thunder or fog.

VAZ042-051-052>054-056-231400-
NORTHERN VIRGINIA

CITY           SKY/WX    TMP DP  RH WIND       PRES   REMARKS
WASH NATIONAL  FAIR      77  65  66 NW9       29.99R
DULLES         FAIR      75  64  68 NW13      29.99S
FORT BELVOIR   FAIR      76  66  71 NW8       29.99R
QUANTICO       FAIR      76  69  79 CALM      30.00R
FREDERICKSBRG* FAIR      74  72  95 CALM      30.00R
STAFFORD*      FAIR      75  73  93 CALM      30.04R
WARRENTON      FAIR      74  65  73 NE3       30.01R
CULPEPER*      FAIR     N/A N/A N/A CALM      30.01S
MANASSAS*      FAIR      75  66  73 VRB6      30.00S
LEESBURG*      FAIR      73  63  68 N13G18    30.01R
WINCHESTER     FAIR      72  61  68 NW13      30.04R
FRONT ROYAL*   FAIR     N/A N/A N/A N3        30.02R
LURAY*         FAIR      72  66  83 CALM      30.03R
$$

VAZ048-049-060>072-079>083-231400-
CENTRAL AND SOUTH CENTRAL VIRGINIA

CITY           SKY/WX    TMP DP  RH WIND       PRES   REMARKS
RICHMOND       PTSUNNY   75  69  81 W12       29.99R
CHESTERFIELD*  FAIR      75  70  84 W10G16    30.00R
PETERSBURG*    FAIR      77  69  76 SW9       30.00S
HANOVER        FAIR      75  69  81 W8        30.01R
TAPPAHANNOCK*  FAIR      73  70  92 W3        30.01R
QUINTON*       FAIR      72  72 100 W5        29.98R
CHARLOTTSVILLE FAIR      77  66  68 CALM      30.00R
GORDONSVILLE*  FAIR      74  71  92 CALM      30.00R
ORANGE*        FAIR      72  68  88 CALM      30.01R
LOUISA*        FAIR      74  68  82 W3        30.05R
BUMPASS*       FAIR      73  70  90 CALM      30.01R
FARMVILLE*     FAIR     N/A N/A N/A SW6       30.00S
CREWE*         FAIR      74  74 100 SW3       30.01S
FORT PICKETT*  FAIR      74  74 100 SW10      30.02R
CHASE CITY*    FAIR      74  74 100 W3        30.04R
CLARKSVILLE*   FAIR      75  72  88 SW8       30.03S
SOUTH HILL*    FAIR      76  71  85 SW7       30.09R
LAWRENCEVILLE* FAIR      75  70  84 SW6       30.02S
EMPORIA*       FAIR      75  68  78 S8        30.03S
$$

VAZ088>098-231400-
SOUTHEAST VIRGINIA

CITY           SKY/WX    TMP DP  RH WIND       PRES   REMARKS
NORFOLK        FAIR      79  70  74 W10G18    29.99S
VIRGINIA BEACH PTSUNNY   77  70  79 SW12      29.99S
NORFOLK NAVAL  FAIR      78  68  71 SW10G18   30.00F
WEST POINT*    FAIR      74  70  86 W8        30.01R
SALUDA*        FAIR      74  73  96 W3        29.98R
NEWPORT NEWS   FAIR      78  69  73 W14       29.99S
LANGLEY AFB    FAIR      78  70  78 SW14      29.99F
FORT EUSTIS    FAIR      77  70  79 W7        29.97S
WILLIAMSBURG*  FAIR      77  68  73 W10       29.99F
HR EXEC AP*    FAIR      77  69  76 SW10      30.01S
FRANKLIN*      FAIR      76  69  80 W7        30.02S
US460-WAKEFLD  FAIR      77  68  73 W8        30.00S
$$

VAZ020-022-025-037-045-231400-
WEST CENTRAL AND SOUTHWEST VIRGINIA

CITY           SKY/WX    TMP DP  RH WIND       PRES   REMARKS
STAUNTON*      FAIR      72  63  72 CALM      30.05S
WAYNESBORO*    FAIR      72  64  77 SW10G16   30.05R
HOT SPRINGS VA PTSUNNY   62  61  97 W9        30.16R
LYNCHBURG      FAIR      73  67  81 W7        30.04R
DANVILLE       FAIR      74  70  87 W9        30.05R
SOUTH BOSTON*  FAIR      74  70  87 SW7       30.04R
MARTINSVILLE   FAIR      75  66  73 SW3       30.10R
ROANOKE        FAIR      74  66  76 W6        30.09R
BLACKSBURG     FAIR      67  65  94 SW5       30.15S
DUBLIN*        FAIR      72  64  76 W9        30.14S
MARION*        PTSUNNY   68  67  98 W7        30.19R
HILLSVILLE*    PTSUNNY   67  64  89 NW7       30.15S
RICHLANDS*     CLOUDY    66  53  64 W5        30.18R
WISE*          PTSUNNY   68  68 100 W6        30.18S
ABINGDON*      CLOUDY    69  69 100 W5        30.16S
$$

MDZ021>025-VAZ099-100-231400-
SOUTHERN MARYLAND AND THE DELMARVA PENINSULA

CITY           SKY/WX    TMP DP  RH WIND       PRES   REMARKS
PATUXENT RIVER FAIR      77  69  76 W9        29.97R
BAY BRIDGE APT FAIR      72  68  88 N8        29.97R
LEONARDTOWN    FAIR      72  68  88 W7        30.00R
DOVER          CLOUDY    72  68  88 W8        29.95S
GEORGETOWN     PTSUNNY   73  68  84 NW10G17   29.96S
EASTON         MOSUNNY   75  68  78 NW12      30.00S
CAMBRIDGE      SUNNY     73  70  88 W7        29.97R
SALISBURY      PTSUNNY   74  70  87 W9        29.96R
TANGIER        FAIR      75  73  94 W10       29.98R
OCEAN CITY     CLOUDY    74  71  91 W10       29.96R
WALLOPS ISLAND PTSUNNY   77  71  82 W12G21    29.96S
ACCOMACK*      FAIR      76  70  82 W16       29.98R
$$

NCZ012>017-030>032-231400-
NORTH CENTRAL AND EASTERN NORTH CAROLINA

CITY           SKY/WX    TMP DP  RH WIND       PRES   REMARKS
ROANOKE RAPIDS   N/A     73  70  88 SW8       30.04R
RALEIGH        PTSUNNY   74  70  87 W13       30.07R
ELIZABETH CITY PTSUNNY   76  72  87 SW14      30.03S
AHOSKIE*       FAIR      73  71  92 CALM      30.04R
EDENTON*       FAIR      77  71  84 SW9       30.05S
CURRITUCK*     NOT AVBL
KILL DEVIL HLS FAIR      74  69  83 SW7G17    30.03S
MANTEO         FAIR      76  69  81 W14       30.05S
CAPE HATTERAS  FAIR      76  72  87 W9G20     30.08R
TARBORO*       NOT AVBL
GOLDSBORO      CLOUDY    73  69  88 SW14      30.07R
WASHINGTON     CLOUDY    76  70  82 SW10      30.08R
GREENVILLE     CLOUDY    73  70  88 W8        30.08S
NEW BERN       FAIR      74  70  87 W15G23    30.09S
WILMINGTON     PTSUNNY   78  70  76 SW16G23   30.11R
$$

VAZ048-231400-
ELSEWHERE

CITY           SKY/WX    TMP DP  RH WIND       PRES   REMARKS
HARRISBURG PA  FAIR      70  62  76 NW9       29.97S
BALTIMORE      FAIR      75  67  76 NW7       29.97R
ANNAPOLIS        N/A    N/A N/A N/A MISG      29.97
ANDREWS AFB    FAIR      74  67  76 NW8       29.98R
PHILADELPHIA   CLOUDY    66  63  90 NW6       29.95S FOG
HENDERSON NC   FAIR      72  66  83 SW10      30.05R
GREENSBORO     PTSUNNY   74  69  85 W13       30.07S
ROCKY MOUNT    PTSUNNY   76  70  82 SW10      30.06S
$$

VAZ100-231400-
MARINE

STATION/POSITION TIME  TEMP    WIND        PRES    WAVE   SWELL
                       AIR SEA DIR/SP/G            HT/PER HT/PER
                 (UTC) (F)     (DEG/KT/KT) (MB)    (FT/S) (FT/S)
BRANDYWINE LGT   1248   68     310/  9/ 11 1014.7R
CAPE MAY NJ      1248   68 64  310/  4/  5 1013.8R
LEWES DE         1242   69 64  310/  8/  9 1014.3R
15NM E FENWICK I 1250   62 62  220/  8/  8 1014.6R   2/ 8   2/ 8
OCEAN-CITY-INLET 1242   72 62  280/  8/ 11 1014.7R
WACHAPREAGUE VA  1248   76 74  230/  8/ 12 1014.9R
THOMAS POINT MD  1300   72 68  310/ 12/ 13 1015.8R
GOOSES REEF MD   1300   72     300/  8/ 12 1017.1    1
COVE POINT MD    1248   72     320/ 10/ 12 1015.4R
SOLOMONS ISLAND  1248   73 70  270/  5/  7 1014.9R
BISHOPS HEAD MD  1248   71 73  260/ 11/ 12 1015.5R
PINEY POINT MD   1248          320/ 11/ 13   N/A
POTOMAC MD       1300   71 71  300/ 10/ 12 1014.6    1/ 2
CAMBRIDGE MD     1248   75 72              1015.7R
LEWISETTA VA     1248   73 73  300/ 10/ 14 1015.3R
RAPPAHANNOCK LGT 1248          240/  8/ 10 1015.7R
STINGRAY PT      1300   74 72  310/ 12/ 14 1018.5    1/ 2
YORK RVR RNG VA  1248   76     270/ 16/ 18 1015.5F
YORKTOWN VA      1248   76 74  250/ 14/ 21 1014.6F
DOMINION TERM VA 1248   76     250/ 12/ 15 1016.0S
KIPTOPEKE VA     1242      70  230/ 13/ 15   N/A
CAPE HENRY VA    1248   77     230/  9/ 18   N/A
WILLOUBY STN VA  1248          240/ 14/ 15   N/A
S CRANEY ISL VA  1248   77     240/ 10/ 13 1015.7R
CAPE HENRY BUOY  1300      68                N/A     2/ 4
1ST LANDING BUOY 1300   74 71  260/ 12/ 16 1015.4    1/ 3
64NM E OF VA BCH 1250   70 68  230/ 12/ 14 1016.9R   4/ 5   2/ 8
DUCK PIER NC     1248   74 64  240/ 16/ 19 1016.7S
44100 DUCK FRF   1245      68                N/A     3/ 7
44056 DUCK FRF   1300      66                N/A     2/ 8
OREGON INLET NC  1242   75 76  230/ 16/ 19 1017.2F
HATTERAS NC      1248   76 74  240/ 10/ 14 1018.0R
DIAMOND SHLS NC  1250   75 74  250/ 14/ 17 1018.9S   4/ 8   2/ 8
CAPE LOOKOUT NC  1200          220/ 13/ 16 1019.4R
$$



USA.gov is the U.S. government's official web portal to all federal, state and local government web resources and services.